Hourly Weather Smychka

Today, 24 July, Saturday

Time Temperature Precipitation Wind Pressure Humidity
00:00 +16°C° 0 mm 2 mps 740 mmHg 79%
01:00 +16°C° 0 mm 2 mps 740 mmHg 79%
02:00 +16°C° 0 mm 2 mps 740 mmHg 78%
03:00 +16°C° 0 mm 2 mps 740 mmHg 81%
04:00 +15°C° 0 mm 2 mps 740 mmHg 84%
05:00 +15°C° 0 mm 2 mps 740 mmHg 88%
06:00 +17°C° 0 mm 3 mps 741 mmHg 79%
07:00 +18°C° 0 mm 3 mps 741 mmHg 71%
08:00 +20°C° 0 mm 3 mps 741 mmHg 62%
09:00 +21°C° 0 mm 4 mps 741 mmHg 56%
10:00 +22°C° 0 mm 5 mps 742 mmHg 51%
11:00 +22°C° 0 mm 5 mps 742 mmHg 45%
12:00 +22°C° 0 mm 5 mps 742 mmHg 46%
13:00 +22°C° 0 mm 5 mps 742 mmHg 47%
14:00 +22°C° 0 mm 4 mps 742 mmHg 48%
15:00 +21°C° 0 mm 4 mps 743 mmHg 50%
16:00 +21°C° 0 mm 3 mps 743 mmHg 53%
17:00 +21°C° 0 mm 2 mps 743 mmHg 56%
18:00 +20°C° 0 mm 2 mps 743 mmHg 58%
19:00 +20°C° 0 mm 1 mps 744 mmHg 61%
20:00 +18°C° 0 mm 1 mps 744 mmHg 63%
21:00 +16°C° 0 mm 1 mps 744 mmHg 67%
22:00 +15°C° 0 mm 1 mps 745 mmHg 70%
23:00 +14°C° 0 mm 1 mps 745 mmHg 73%

Tomorrow, 25 July, Sunday

Time Temperature Precipitation Wind Pressure Humidity
00:00 +14°C° 0 mm 1 mps 745 mmHg 73%
01:00 +13°C° 0 mm 0 mps 745 mmHg 74%
02:00 +13°C° 0 mm 0 mps 745 mmHg 74%
03:00 +13°C° 0 mm 0 mps 746 mmHg 74%
04:00 +13°C° 0 mm 0 mps 746 mmHg 75%
05:00 +14°C° 0 mm 1 mps 746 mmHg 75%
06:00 +16°C° 0 mm 1 mps 746 mmHg 69%
07:00 +19°C° 0 mm 1 mps 747 mmHg 63%
08:00 +21°C° 0 mm 1 mps 747 mmHg 57%
09:00 +21°C° 0 mm 0 mps 747 mmHg 52%
10:00 +22°C° 0 mm 0 mps 747 mmHg 47%
11:00 +23°C° 0 mm 0 mps 747 mmHg 42%
12:00 +25°C° 0 mm 1 mps 747 mmHg 41%
13:00 +26°C° 0 mm 1 mps 747 mmHg 40%
14:00 +26°C° 0 mm 2 mps 747 mmHg 39%
15:00 +26°C° 0 mm 2 mps 747 mmHg 41%
16:00 +26°C° 0 mm 1 mps 747 mmHg 43%
17:00 +25°C° 0 mm 1 mps 747 mmHg 45%
18:00 +23°C° 0 mm 2 mps 747 mmHg 50%
19:00 +21°C° 0 mm 2 mps 747 mmHg 54%
20:00 +19°C° 0 mm 2 mps 748 mmHg 59%
21:00 +18°C° 0 mm 2 mps 748 mmHg 60%
22:00 +18°C° 0 mm 2 mps 748 mmHg 62%
23:00 +17°C° 0 mm 2 mps 748 mmHg 63%

Day after tomorrow, 26 July, Monday

Time Temperature Precipitation Wind Pressure Humidity
00:00 +17°C° 0 mm 2 mps 748 mmHg 63%
01:00 +17°C° 0 mm 2 mps 748 mmHg 63%
02:00 +17°C° 0 mm 2 mps 748 mmHg 62%
03:00 +17°C° 0 mm 2 mps 749 mmHg 63%
04:00 +18°C° 0 mm 1 mps 749 mmHg 65%
05:00 +18°C° 0 mm 1 mps 749 mmHg 66%
06:00 +20°C° 0 mm 1 mps 749 mmHg 62%
07:00 +21°C° 0 mm 1 mps 749 mmHg 59%
08:00 +23°C° 0 mm 1 mps 749 mmHg 55%
09:00 +24°C° 0 mm 1 mps 749 mmHg 51%
10:00 +26°C° 0 mm 2 mps 749 mmHg 46%
11:00 +27°C° 0 mm 2 mps 750 mmHg 42%
12:00 +27°C° 0 mm 2 mps 749 mmHg 42%
13:00 +27°C° 0 mm 1 mps 749 mmHg 43%
14:00 +27°C° 0 mm 1 mps 749 mmHg 43%
15:00 +26°C° 0 mm 1 mps 749 mmHg 49%
16:00 +25°C° 0 mm 2 mps 749 mmHg 54%
17:00 +24°C° 0 mm 2 mps 749 mmHg 60%
18:00 +23°C° 0.1 mm 2 mps 749 mmHg 62%
19:00 +22°C° 0.1 mm 1 mps 749 mmHg 65%
20:00 +21°C° 0.1 mm 1 mps 749 mmHg 68%
21:00 +20°C° 0.1 mm 1 mps 749 mmHg 69%
22:00 +20°C° 0.1 mm 1 mps 749 mmHg 70%
23:00 +19°C° 0.1 mm 1 mps 749 mmHg 71%

27 July, Tuesday

Time Temperature Precipitation Wind Pressure Humidity
00:00 +19°C° 0 mm 1 mps 749 mmHg 71%
01:00 +17°C° 0 mm 0 mps 749 mmHg 71%
02:00 +17°C° 0 mm 0 mps 749 mmHg 71%
03:00 +17°C° 0 mm 0 mps 749 mmHg 72%
04:00 +17°C° 0 mm 0 mps 749 mmHg 74%
05:00 +17°C° 0 mm 0 mps 749 mmHg 75%
06:00 +19°C° 0 mm 0 mps 749 mmHg 70%
07:00 +20°C° 0 mm 0 mps 749 mmHg 65%
08:00 +22°C° 0 mm 0 mps 749 mmHg 60%
09:00 +25°C° 0 mm 1 mps 749 mmHg 56%
10:00 +27°C° 0 mm 1 mps 749 mmHg 51%
11:00 +28°C° 0 mm 1 mps 749 mmHg 47%
12:00 +28°C° 0 mm 1 mps 749 mmHg 46%
13:00 +28°C° 0 mm 1 mps 748 mmHg 45%
14:00 +29°C° 0 mm 1 mps 748 mmHg 44%
15:00 +28°C° 0 mm 2 mps 748 mmHg 48%
16:00 +27°C° 0 mm 2 mps 748 mmHg 52%
17:00 +26°C° 0 mm 2 mps 747 mmHg 56%
18:00 +25°C° 0.1 mm 1 mps 747 mmHg 59%
19:00 +24°C° 0.1 mm 1 mps 747 mmHg 62%
20:00 +23°C° 0.1 mm 1 mps 747 mmHg 65%
21:00 +22°C° 0 mm 1 mps 747 mmHg 66%
22:00 +22°C° 0 mm 1 mps 747 mmHg 68%
23:00 +21°C° 0 mm 1 mps 747 mmHg 69%

28 July, Wednesday

Time Temperature Precipitation Wind Pressure Humidity
00:00 +21°C° 0 mm 1 mps 747 mmHg 71%
01:00 +20°C° 0 mm 1 mps 747 mmHg 73%
02:00 +20°C° 0 mm 1 mps 747 mmHg 74%
03:00 +19°C° 0 mm 2 mps 746 mmHg 75%
04:00 +19°C° 0 mm 2 mps 746 mmHg 75%
05:00 +19°C° 0 mm 2 mps 746 mmHg 75%
06:00 +21°C° 0 mm 3 mps 746 mmHg 68%
07:00 +24°C° 0 mm 3 mps 746 mmHg 61%
08:00 +26°C° 0 mm 3 mps 746 mmHg 54%
09:00 +27°C° 0 mm 4 mps 745 mmHg 49%
10:00 +28°C° 0 mm 4 mps 745 mmHg 44%
11:00 +29°C° 0 mm 4 mps 745 mmHg 40%
12:00 +28°C° 0 mm 5 mps 745 mmHg 44%
13:00 +27°C° 0 mm 6 mps 745 mmHg 48%
14:00 +26°C° 0 mm 7 mps 744 mmHg 53%
15:00 +24°C° 0.1 mm 6 mps 744 mmHg 60%
16:00 +22°C° 0.1 mm 5 mps 744 mmHg 68%
17:00 +20°C° 0.1 mm 4 mps 744 mmHg 75%
18:00 +19°C° 0.3 mm 4 mps 743 mmHg 80%
19:00 +19°C° 0.3 mm 4 mps 743 mmHg 85%
20:00 +18°C° 0.3 mm 4 mps 742 mmHg 90%
21:00 +18°C° 0.3 mm 4 mps 742 mmHg 91%
22:00 +18°C° 0.3 mm 4 mps 742 mmHg 92%
23:00 +18°C° 0.3 mm 4 mps 741 mmHg 93%

29 July, Thursday

Time Temperature Precipitation Wind Pressure Humidity
00:00 +18°C° 0.4 mm 4 mps 741 mmHg 93%
01:00 +18°C° 0.4 mm 4 mps 740 mmHg 94%
02:00 +18°C° 0.4 mm 4 mps 740 mmHg 94%
03:00 +18°C° 0.1 mm 4 mps 739 mmHg 95%
04:00 +18°C° 0.1 mm 4 mps 739 mmHg 95%
05:00 +18°C° 0.1 mm 3 mps 739 mmHg 95%
06:00 +19°C° 0.1 mm 3 mps 739 mmHg 90%
07:00 +20°C° 0.1 mm 3 mps 738 mmHg 86%
08:00 +21°C° 0.1 mm 2 mps 738 mmHg 81%
09:00 +23°C° 0.1 mm 2 mps 738 mmHg 78%
10:00 +24°C° 0.1 mm 2 mps 738 mmHg 74%
11:00 +25°C° 0.1 mm 3 mps 738 mmHg 71%
12:00 +24°C° 0.1 mm 3 mps 738 mmHg 74%
13:00 +24°C° 0.1 mm 3 mps 738 mmHg 77%
14:00 +22°C° 0.1 mm 3 mps 738 mmHg 79%
15:00 +24°C° 0.1 mm 3 mps 738 mmHg 78%
16:00 +24°C° 0.1 mm 3 mps 738 mmHg 76%
17:00 +24°C° 0.1 mm 3 mps 738 mmHg 74%
18:00 +22°C° 0.1 mm 3 mps 738 mmHg 80%
19:00 +21°C° 0.1 mm 3 mps 738 mmHg 85%
20:00 +20°C° 0.1 mm 3 mps 738 mmHg 91%
21:00 +19°C° 0 mm 3 mps 738 mmHg 92%
22:00 +18°C° 0 mm 3 mps 738 mmHg 94%
23:00 +18°C° 0 mm 3 mps 738 mmHg 95%
Show more